Location: Unspecified
(0.0000°N, 0.0000°E)
Time: 18:14:19
(UTC+00:00)

Envisat - Pass Details

Date: 06 May 2021
Orbit: 764 x 766 km, 98.1° (Epoch: 14 May)

Event Time Altitude Azimuth Distance (km) Brightness Sun altitude
Rises 03:53:51 0° 53° (NE) 3,217 7.3 -29.3°
Reaches altitude 10° 03:58:27 10° 92° (E) 2,296 6.3 -28.2°
Maximum altitude 03:59:21 10° 103° (ESE) 2,265 6.1 -28.0°
Drops below altitude 10° 04:00:16 10° 113° (ESE) 2,298 6.0 -27.8°
Sets 04:04:51 0° 152° (SSE) 3,228 6.4 -26.7°
